Temperature
21 21 21 21 20 20 20 19 19 19 19 19 18 18 18 18 18 18 17 17 17 17 17 16 17 17 16 16 16 16 16 16 16 16 15 15 15 15 14 14 14 14 14
21 21 21 21 20 20 20 20 19 19 19 19 18 18 18 17 17 17 17 17 17 17 17 16 16 16 16 16 16 16 16 16 15 15 15 15 14 14 14 14 14 14 14
21 21 21 21 20 20 20 20 19 19 19 18 18 18 18 18 17 17 17 17 17 17 16 16 16 16 16 16 16 16 15 15 15 15 15 14 14 14 14 14 13 13 13
21 20 20 20 20 20 20 20 19 19 19 18 18 18 18 18 17 17 17 17 17 17 17 16 16 16 16 16 16 16 15 15 15 15 14 14 14 14 13 13 13 13 13
20 20 20 20 20 20 20 19 19 19 19 19 18 18 18 18 17 17 17 17 17 16 16 16 16 16 16 16 15 15 15 15 15 15 14 14 14 13 13 13 13 13 12
20 20 19 19 19 19 19 19 19 19 19 18 18 18 18 17 17 17 17 16 16 16 16 16 16 16 16 16 16 16 15 15 14 14 14 14 14 13 13 13 13 12 12
19 19 19 19 19 19 19 19 18 19 19 18 18 17 17 17 17 17 17 16 16 16 16 16 15 15 15 15 15 15 15 15 15 14 14 13 13 13 13 13 12 12 12
19 19 19 19 19 19 18 18 18 18 18 18 18 17 17 17 17 17 17 16 16 16 15 15 15 15 15 15 14 14 14 14 14 14 13 13 13 13 13 12 12 12 12
19 19 19 19 18 18 18 18 18 18 18 17 17 17 17 16 17 17 16 16 15 15 15 15 15 15 15 15 14 14 14 14 14 13 13 13 13 13 13 12 12 12 12
19 18 19 19 18 18 18 18 17 17 17 17 17 16 16 16 16 16 16 15 15 15 15 15 15 15 15 15 14 13 13 13 13 13 13 13 13 12 12 12 11 11 12
18 18 18 18 18 18 17 17 17 17 16 16 16 16 16 16 16 16 16 15 15 15 15 14 14 14 14 14 14 13 13 13 12 12 12 12 12 12 12 11 11 11 11
18 18 18 18 17 17 17 17 16 16 16 16 16 16 16 16 16 16 15 15 15 14 14 14 14 14 14 14 13 13 13 13 12 12 12 12 11 11 11 11 11 11 11
17 17 17 17 17 17 17 16 16 16 16 15 15 15 15 15 15 15 15 15 15 14 14 14 13 13 13 13 13 13 12 12 12 11 11 11 11 11 11 10 10 10 10
16 16 16 16 16 16 16 16 16 15 15 15 15 15 15 15 14 14 14 14 14 14 13 13 13 13 13 13 12 12 12 12 11 11 11 11 11 10 10 10 10 10 10
16 16 16 16 16 15 15 15 15 15 15 15 15 15 14 14 14 14 14 13 13 13 13 13 12 12 12 12 12 11 11 11 11 10 10 10 10 10 10 9 9 9 9
15 15 15 15 15 15 15 15 15 15 14 14 14 14 14 14 14 14 14 13 13 13 12 12 12 11 11 11 11 11 11 10 10 10 10 10 10 10 9 9 9 9 9
14 14 15 15 15 15 15 14 14 14 14 14 14 14 13 13 13 13 13 13 12 12 12 11 11 11 11 11 11 10 10 10 10 9 9 9 9 9 9 9 9 9 9
14 14 14 14 14 14 14 14 14 13 13 13 13 13 13 13 12 12 12 12 11 11 11 11 11 10 10 10 10 10 10 9 9 9 9 9 8 8 8 8 8 8 8
14 14 14 14 13 13 13 13 13 13 13 12 12 12 12 12 12 11 11 11 11 10 10 10 10 10 10 9 9 9 9 9 8 8 8 8 8 8 8 8 8 7 7
13 13 13 13 13 13 12 12 12 12 12 12 12 11 11 11 11 11 10 10 10 10 10 9 9 9 9 9 8 8 8 8 8 7 7 7 7 7 7 7 7 7 7
12 12 12 12 12 12 12 12 12 12 12 11 11 11 11 10 10 10 10 9 9 9 9 9 8 8 8 8 7 7 7 7 7 7 7 7 7 6 6 6 6 6 6
11 12 11 11 11 11 11 11 11 11 11 11 10 10 10 10 9 9 9 9 8 8 8 8 8 8 7 7 7 6 6 6 6 6 6 6 6 6 6 6 6 6 6
11 11 11 11 11 10 11 10 10 10 10 10 10 9 9 9 9 8 8 8 8 7 7 7 7 7 6 6 6 6 6 6 6 6 6 6 6 6 6 6 6 6 6
10 10 10 10 10 10 10 10 10 9 9 9 9 9 8 8 8 8 8 7 7 7 7 7 6 6 6 6 6 6 5 5 5 5 5 5 5 5 5 5 5 5 5
10 10 10 9 9 9 9 9 9 9 9 8 8 8 8 8 7 7 7 7 7 6 6 6 6 5 5 5 5 5 5 5 5 5 5 5 5 5 5 5 5 5 5
9 9 9 9 9 9 8 8 8 8 8 8 8 8 7 7 7 7 6 6 6 6 5 5 5 5 5 5 5 5 5 5 4 4 4 4 4 4 4 4 4 4 4
Wind_Speed
10 9 8 8 9 8 8 7 7 6 7 7 7 6 6 5 5 5 5 5 5 5 5 4 4 4 4 4 4 4 4 4 4 2 0 1 1 1 2 2 2 2 4
9 9 9 8 8 8 8 8 7 7 7 7 7 6 6 5 5 5 5 5 5 5 5 4 4 3 3 3 3 3 3 3 3 2 1 1 1 1 2 1 1 1 3
9 9 9 9 9 8 7 7 7 7 7 7 6 6 6 5 5 5 5 5 5 4 4 4 4 4 3 3 3 3 3 3 2 3 2 1 1 2 2 1 1 1 2
8 9 9 9 8 8 8 7 7 7 7 7 7 6 6 6 6 6 6 5 5 4 3 4 4 4 4 4 4 4 3 3 3 3 2 2 2 2 2 2 2 2 1
7 8 8 8 7 7 7 7 7 7 8 7 7 7 7 6 6 6 6 6 6 5 4 4 4 2 2 3 3 3 3 3 3 3 3 3 3 3 3 3 3 3 2
6 7 6 7 7 7 7 7 7 7 7 7 7 7 7 6 4 5 6 6 6 6 5 4 4 4 4 3 2 2 2 4 4 3 3 3 4 3 3 3 3 3 2
5 5 6 6 6 7 7 7 7 7 6 6 6 6 6 4 5 6 6 6 6 5 5 5 4 3 4 4 4 5 3 1 1 3 3 3 3 3 3 4 3 3 2
5 5 5 6 6 6 6 6 6 6 5 6 6 6 5 5 6 6 7 7 6 6 6 5 5 3 3 3 4 4 3 3 2 3 2 2 1 2 3 4 3 3 2
5 5 5 5 5 5 5 5 5 5 5 5 5 5 5 4 6 6 7 7 6 6 6 6 6 5 4 3 4 3 3 3 3 3 4 3 4 3 2 3 3 4 3
4 4 4 4 4 4 4 4 4 4 5 4 4 5 5 4 6 8 8 6 5 5 5 5 5 4 5 5 5 4 3 3 3 4 4 4 4 5 5 4 3 4 3
2 2 3 3 4 4 4 4 3 4 4 4 4 4 5 4 7 8 8 6 5 5 4 4 4 8 7 6 4 3 2 2 3 4 3 3 3 3 4 4 3 4 3
2 2 2 2 2 3 3 4 5 5 5 4 5 5 4 4 4 7 9 8 5 4 4 3 4 9 8 6 4 3 3 3 3 3 3 3 3 3 3 3 4 4 4
2 3 3 3 2 3 3 4 5 5 5 5 5 5 4 3 4 7 10 9 7 5 2 3 6 8 7 6 5 5 5 4 3 3 3 3 2 2 2 3 4 4 5
3 3 3 3 3 2 3 3 4 4 4 5 5 4 3 3 3 3 4 5 6 5 3 5 8 7 5 3 5 5 4 3 3 3 3 2 2 2 3 3 3 4 4
2 2 3 3 3 2 2 1 1 0 2 3 3 3 3 3 1 1 3 4 4 4 4 4 4 4 4 4 3 3 3 3 3 3 3 3 3 3 3 3 3 4 4
3 3 3 2 2 2 2 2 5 3 4 3 4 3 1 1 1 2 3 3 3 5 5 4 4 4 4 4 4 3 3 2 2 3 3 3 3 3 3 3 4 4 4
3 3 3 2 2 3 3 3 2 2 4 3 3 2 2 2 3 3 4 5 5 6 4 3 3 3 3 3 3 3 2 2 2 2 2 2 2 2 2 3 3 4 4
3 3 3 3 3 3 3 3 2 3 2 1 2 3 3 4 4 4 4 5 3 3 2 2 2 2 2 2 2 2 2 2 2 2 2 2 2 2 3 3 3 3 4
3 3 2 2 2 2 3 2 2 2 2 2 2 3 4 5 5 4 3 2 2 1 1 1 1 1 1 1 1 1 1 1 1 2 2 2 2 3 3 3 3 3 5
1 1 2 2 2 3 3 3 2 2 2 2 2 2 2 3 2 3 2 2 2 2 1 1 1 1 0 1 1 1 1 1 1 2 2 2 2 3 3 4 4 4 5
1 1 3 2 2 2 2 3 2 2 2 2 2 3 1 2 2 3 2 2 2 2 2 2 1 1 1 1 1 0 1 1 2 2 2 2 2 3 3 3 4 5 5
2 2 2 2 2 1 2 2 2 3 3 3 3 4 3 1 2 2 2 3 3 2 2 2 2 2 1 1 1 1 1 1 1 2 2 2 3 3 3 4 4 4 5
1 1 2 2 2 2 2 2 2 2 2 2 3 3 3 2 2 3 3 2 2 2 2 2 2 2 2 2 2 2 1 2 2 3 3 4 4 4 4 4 5 5 5
1 1 1 2 2 2 2 2 2 2 2 2 2 3 3 3 3 3 3 3 3 3 3 3 3 4 5 4 3 4 5 5 5 4 4 5 4 4 4 4 5 5 5
1 2 2 2 2 2 3 3 3 3 3 3 3 3 3 3 3 3 3 3 4 4 4 4 4 4 5 5 6 6 7 7 7 7 5 4 4 4 4 5 4 5 5
1 2 2 3 3 3 3 3 3 3 3 3 3 3 3 3 3 3 3 4 4 4 4 4 5 5 5 5 7 8 7 7 8 9 7 4 3 3 4 5 5 5 5
Wind_Direction
194 195 200 200 201 204 209 213 215 217 213 217 220 222 225 227 227 232 247 247 251 257 261 257 257 265 266 261 257 253 248 247 251 265 280 130 178 208 139 147 159 165 131
190 190 195 198 200 204 205 208 209 211 213 217 221 220 221 222 222 226 236 240 245 250 256 258 259 249 244 258 260 255 254 249 246 245 258 187 206 174 148 170 159 130 104
187 190 190 194 199 204 204 202 203 205 209 212 211 213 216 219 225 229 230 232 236 242 248 250 257 256 250 250 251 251 248 239 226 224 224 184 207 170 166 181 164 147 136
190 192 192 195 197 201 201 199 200 201 204 208 210 210 211 214 223 229 229 227 227 229 236 243 249 248 253 257 248 244 245 239 221 221 209 200 187 170 189 200 195 187 189
191 193 194 197 198 200 199 199 198 201 205 204 208 207 210 212 218 223 229 226 223 221 221 227 230 229 294 278 277 256 236 236 228 223 212 208 201 188 203 201 211 195 194
192 193 192 195 197 198 199 199 199 202 208 205 210 211 212 219 180 204 235 225 220 222 224 226 215 201 205 214 262 303 287 245 244 236 228 221 215 211 206 210 205 207 212
190 192 190 195 199 201 201 197 198 201 203 203 211 214 217 209 168 198 226 229 222 225 223 221 225 201 197 212 186 191 194 173 270 260 253 244 218 206 207 209 203 219 240
186 192 193 197 201 200 201 200 200 199 200 204 210 214 219 202 175 199 215 221 221 219 222 219 219 205 206 213 206 195 194 181 193 223 241 237 227 185 204 216 195 194 204
182 191 195 193 198 197 199 204 201 198 200 204 204 215 221 204 178 193 212 220 218 217 217 214 213 205 158 191 217 204 192 173 126 97 64 73 81 116 181 192 187 208 221
194 193 187 181 188 194 193 202 204 203 203 200 205 217 220 218 183 191 208 222 217 216 209 205 202 207 156 183 210 210 210 197 166 150 149 157 161 162 184 216 216 229 236
195 182 177 184 196 199 188 188 202 219 214 207 213 219 216 215 184 188 202 221 225 220 214 209 183 158 163 181 217 222 194 198 189 183 176 175 172 170 186 204 229 245 250
182 176 177 186 205 197 188 197 201 211 214 212 220 223 213 203 196 188 198 218 249 226 223 213 157 147 161 174 195 158 155 209 209 201 197 192 190 187 187 199 210 236 256
190 193 196 196 199 210 199 208 210 208 218 221 223 224 220 210 192 182 193 202 220 226 214 109 124 149 161 174 180 177 194 213 217 215 217 209 200 189 191 197 205 219 231
203 201 199 197 201 201 211 215 219 220 223 230 231 234 231 218 215 196 194 189 192 203 192 142 149 162 177 158 163 181 209 219 224 223 223 215 184 186 207 218 222 219 230
219 219 226 223 205 204 200 246 234 264 292 267 259 255 255 249 244 226 209 199 196 185 173 171 174 173 178 179 183 192 203 205 217 226 222 216 214 212 211 219 234 233 236
237 236 239 233 207 202 178 131 58 64 52 29 357 319 333 54 107 138 154 155 148 161 179 187 191 197 197 192 188 190 196 205 218 227 229 228 228 231 232 230 237 245 249
243 244 244 235 218 208 201 198 182 112 102 87 65 39 45 86 109 130 144 151 161 171 189 193 194 196 198 200 202 205 206 204 219 230 236 241 244 245 249 247 250 253 255
234 233 237 227 221 217 213 215 217 206 191 133 96 105 126 130 128 127 136 136 141 174 189 183 193 197 196 199 201 205 213 204 209 240 254 260 263 258 255 255 256 267 268
234 235 236 230 219 214 216 211 203 203 184 150 139 125 141 143 138 132 156 145 129 130 129 125 138 172 185 194 199 212 219 210 228 250 249 251 251 254 258 262 263 255 265
248 206 226 228 221 213 207 207 201 188 171 144 132 115 132 131 118 115 117 106 111 113 118 121 105 91 124 179 192 195 199 214 239 248 254 257 259 258 257 259 262 260 262
249 198 193 213 213 215 205 201 191 171 151 136 114 84 59 156 131 122 120 114 109 109 106 98 90 80 66 51 27 319 236 243 254 264 263 266 272 268 266 263 263 264 267
236 206 195 195 182 189 195 189 172 154 143 132 125 113 113 118 102 104 105 102 99 96 95 95 92 86 78 52 352 312 301 306 315 306 293 279 269 266 267 264 263 266 269
218 193 178 167 152 156 172 164 149 138 127 127 124 118 120 115 111 108 100 92 90 88 86 85 91 87 72 56 40 28 0 350 330 311 291 280 275 270 268 268 270 271 270
191 171 160 161 160 154 144 137 133 126 124 124 123 124 127 128 120 112 104 96 95 92 91 88 81 74 66 55 45 42 33 8 338 313 301 291 285 284 281 276 274 277 277
153 148 145 138 126 121 120 121 121 124 126 124 126 125 122 119 115 110 104 99 95 91 88 83 78 77 73 61 51 44 36 19 -0 339 309 298 297 297 296 292 292 291 287
138 139 135 127 125 125 127 128 125 122 124 124 128 126 123 122 115 109 108 104 101 98 93 87 77 72 69 64 56 46 38 22 5 343 321 315 320 322 318 303 301 295 291
Height
1520 1522 1524 1525 1527 1528 1529 1530 1531 1532 1533 1533 1534 1534 1534 1534 1534 1534 1535 1535 1534 1534 1534 1534 1533 1533 1533 1532 1532 1532 1532 1532 1532 1532 1532 1531 1531 1531 1531 1532 1532 1531 1531
1517 1519 1520 1522 1524 1526 1527 1528 1529 1530 1530 1531 1531 1531 1532 1532 1532 1531 1532 1532 1532 1531 1531 1531 1531 1530 1530 1529 1529 1529 1529 1529 1529 1529 1529 1529 1529 1529 1529 1529 1529 1529 1529
1514 1516 1517 1519 1521 1523 1524 1525 1526 1527 1527 1528 1528 1528 1529 1529 1529 1529 1529 1529 1529 1528 1528 1528 1528 1528 1527 1527 1526 1527 1526 1527 1526 1526 1526 1526 1526 1526 1526 1527 1527 1527 1527
1512 1513 1515 1516 1518 1520 1521 1521 1523 1523 1524 1525 1525 1525 1525 1525 1526 1527 1526 1526 1526 1525 1525 1525 1525 1525 1524 1524 1524 1523 1524 1524 1524 1524 1524 1524 1524 1524 1524 1525 1525 1525 1525
1509 1511 1512 1514 1515 1517 1518 1518 1519 1520 1520 1521 1522 1522 1521 1521 1522 1523 1523 1523 1522 1522 1522 1522 1522 1522 1521 1522 1522 1522 1521 1522 1522 1522 1522 1522 1522 1522 1522 1522 1523 1523 1523
1506 1508 1509 1511 1512 1513 1514 1514 1515 1516 1517 1517 1518 1518 1518 1518 1518 1518 1519 1520 1519 1519 1519 1519 1519 1518 1518 1518 1518 1518 1518 1519 1519 1519 1519 1519 1519 1519 1520 1520 1520 1521 1521
1504 1505 1506 1507 1509 1509 1510 1511 1511 1512 1513 1514 1515 1515 1515 1514 1514 1515 1515 1515 1516 1516 1516 1516 1516 1516 1515 1516 1515 1515 1515 1515 1515 1516 1516 1516 1516 1516 1516 1517 1518 1518 1519
1500 1502 1503 1505 1505 1506 1507 1507 1508 1509 1510 1511 1511 1512 1511 1511 1511 1511 1511 1511 1513 1513 1513 1513 1513 1513 1513 1513 1513 1513 1513 1512 1512 1513 1513 1513 1513 1513 1514 1515 1515 1515 1516
1497 1499 1500 1501 1502 1503 1503 1504 1505 1506 1506 1507 1508 1508 1508 1508 1508 1508 1508 1508 1509 1509 1509 1509 1509 1509 1510 1510 1510 1510 1510 1510 1510 1510 1510 1510 1510 1510 1511 1512 1512 1513 1514
1495 1496 1496 1497 1498 1499 1500 1501 1502 1502 1503 1503 1504 1505 1504 1504 1504 1503 1504 1505 1505 1505 1505 1505 1505 1506 1506 1506 1507 1508 1508 1508 1508 1507 1507 1507 1507 1507 1508 1508 1509 1510 1511
1492 1492 1493 1494 1495 1496 1496 1497 1498 1500 1500 1498 1501 1501 1500 1500 1500 1500 1500 1500 1501 1502 1502 1502 1502 1502 1503 1503 1504 1504 1505 1506 1506 1505 1505 1505 1505 1505 1505 1505 1506 1507 1508
1489 1489 1490 1490 1492 1493 1493 1494 1494 1496 1497 1496 1497 1497 1496 1496 1496 1496 1497 1497 1497 1498 1498 1499 1499 1499 1499 1500 1500 1501 1501 1502 1503 1503 1503 1503 1503 1503 1503 1503 1503 1503 1503
1486 1486 1487 1487 1487 1488 1489 1491 1491 1491 1493 1494 1495 1494 1493 1492 1492 1492 1493 1493 1493 1494 1495 1495 1495 1496 1496 1497 1497 1498 1498 1499 1500 1500 1500 1500 1500 1500 1500 1499 1499 1499 1499
1483 1483 1483 1484 1484 1485 1485 1486 1488 1488 1489 1491 1491 1490 1490 1489 1489 1489 1489 1489 1489 1490 1491 1491 1492 1493 1493 1493 1494 1494 1495 1496 1497 1498 1498 1497 1497 1497 1497 1497 1497 1497 1497
1480 1480 1480 1481 1482 1482 1482 1483 1484 1485 1486 1487 1487 1487 1486 1486 1485 1485 1484 1484 1485 1486 1487 1488 1488 1489 1490 1490 1490 1491 1492 1493 1493 1494 1494 1494 1493 1494 1494 1494 1494 1494 1494
1477 1477 1478 1479 1479 1479 1479 1480 1480 1481 1482 1483 1483 1483 1482 1482 1481 1481 1480 1480 1481 1482 1483 1484 1484 1486 1486 1487 1487 1488 1489 1490 1490 1491 1490 1490 1490 1490 1491 1491 1491 1491 1491
1474 1474 1475 1476 1476 1476 1476 1477 1477 1478 1478 1478 1478 1479 1479 1478 1477 1476 1476 1477 1477 1478 1479 1480 1481 1482 1483 1484 1484 1485 1486 1486 1487 1488 1487 1487 1487 1487 1487 1487 1487 1487 1487
1471 1471 1472 1472 1473 1473 1474 1474 1475 1474 1475 1475 1475 1475 1475 1475 1475 1474 1474 1474 1475 1475 1476 1477 1479 1480 1480 1481 1481 1482 1483 1483 1483 1483 1484 1484 1484 1483 1484 1484 1484 1484 1484
1467 1468 1469 1469 1470 1470 1471 1471 1471 1471 1471 1471 1472 1473 1473 1473 1473 1472 1473 1473 1474 1473 1474 1475 1477 1478 1478 1478 1478 1479 1479 1479 1479 1480 1480 1480 1480 1480 1480 1480 1480 1480 1480
1464 1465 1465 1466 1467 1467 1467 1468 1468 1468 1469 1469 1470 1470 1471 1471 1471 1471 1471 1471 1471 1472 1473 1474 1475 1476 1476 1476 1476 1476 1476 1477 1477 1477 1477 1477 1477 1477 1476 1476 1477 1476 1476
1462 1462 1463 1464 1464 1465 1464 1465 1465 1465 1465 1466 1467 1467 1469 1470 1469 1469 1469 1469 1470 1470 1471 1472 1472 1473 1473 1474 1474 1474 1474 1474 1474 1474 1474 1473 1473 1473 1473 1473 1472 1472 1472
1460 1459 1460 1462 1462 1462 1462 1462 1462 1463 1463 1463 1464 1466 1467 1468 1468 1468 1468 1468 1469 1469 1470 1470 1471 1471 1471 1472 1472 1472 1472 1472 1472 1471 1471 1471 1470 1470 1469 1469 1469 1468 1468
1457 1457 1458 1459 1459 1459 1459 1460 1460 1460 1461 1462 1463 1464 1465 1466 1466 1466 1467 1467 1468 1468 1468 1469 1469 1470 1470 1470 1470 1469 1469 1469 1469 1468 1468 1468 1468 1467 1467 1466 1466 1465 1465
1455 1455 1455 1456 1457 1457 1457 1457 1458 1459 1459 1460 1462 1462 1463 1464 1465 1465 1466 1466 1467 1467 1467 1468 1468 1468 1468 1468 1467 1467 1466 1466 1465 1465 1465 1465 1465 1464 1464 1464 1463 1462 1462
1453 1453 1453 1454 1454 1455 1456 1456 1457 1458 1458 1459 1460 1461 1462 1463 1464 1464 1465 1465 1465 1466 1466 1467 1467 1467 1466 1466 1465 1464 1463 1463 1462 1462 1462 1462 1462 1461 1461 1461 1460 1459 1458
1451 1452 1452 1452 1453 1454 1455 1455 1456 1457 1457 1458 1459 1460 1461 1462 1463 1463 1464 1464 1465 1465 1466 1466 1465 1465 1465 1464 1463 1462 1461 1460 1460 1459 1459 1459 1459 1458 1458 1458 1457 1456 1455